Weather History for Harrisburg, IL

Change the Weather History Date:

Friday, January 4, 2013

  Actual Average (KMWA) Record (KMWA)
Temperature  
Mean Temperature 24 °F -  
Max Temperature 35 °F 40 °F 66 °F (1997)
Min Temperature 12 °F 22 °F 4 °F (1979)
Degree Days  
Heating Degree Days 42    
Moisture  
Dew Point 21 °F    
Average Humidity 88    
Maximum Humidity 100    
Minimum Humidity 60    
Precipitation  
Precipitation 0.00 in - - ()
Sea Level Pressure  
Sea Level Pressure 30.40 in    
Wind  
Wind Speed 1 mph (SE)    
Max Wind Speed 7 mph    
Max Gust Speed -    
Visibility 6 miles    
Events Fog    
Averages and records for this station are not official NWS values.
T = Trace of Precipitation, MM = Missing Value Source: NWS Daily Summary

Daily Weather History Graph

Daily Weather History Graph

Search for Another Location

Airport:

Trip Planner

Search our weather history database for the weather conditions in past years. The results will help you decide how hot, cold, wet, or windy it might be!

Date:

Astronomy

Jan. 04, 2013 Rise Set
Actual Time 7:10 AM CST 4:48 PM CST
Civil Twilight 6:40 AM CST 5:17 PM CST
Nautical Twilight 6:08 AM CST 5:50 PM CST
Astronomical Twilight 5:36 AM CST 6:22 PM CST
Moon No Moon Rise 11:00 AM CST (1/4)
Length of Visible Light 10h 37m
Length of Day
9h 38m
Waning Gibbous, 55% of the Moon is Illuminated
Jan 4
Waning Gibbous
Jan 4
Last Quarter
Jan 11
New
Jan 18
First Quarter
Jan 26
Full

Hourly Weather History & Observations

Time (CST) Temp. Windchill Dew Point Humidity Pressure Visibility Wind Dir Wind Speed Gust Speed Precip Events Conditions
12:15 AM 19.4 °F - 19.4 °F 100% 30.39 in 2.0 mi Calm Calm - N/A   Clear
12:35 AM 19.4 °F - 19.4 °F 100% 30.39 in 1.5 mi Calm Calm - N/A   Mist
12:55 AM 17.6 °F - 17.6 °F 100% 30.39 in 0.2 mi Calm Calm - N/A Fog Light Freezing Fog
1:15 AM 17.6 °F - 15.8 °F 93% 30.39 in 0.2 mi Calm Calm - N/A Fog Light Freezing Fog
1:35 AM 17.6 °F - 17.6 °F 100% 30.39 in 0.2 mi Calm Calm - N/A Fog Light Freezing Fog
1:55 AM 17.6 °F - 17.6 °F 100% 30.40 in 0.2 mi Calm Calm - N/A Fog Light Freezing Fog
2:15 AM 17.6 °F - 17.6 °F 100% 30.40 in 0.2 mi Calm Calm - N/A Fog Light Freezing Fog
2:35 AM 17.6 °F - 15.8 °F 93% 30.40 in 0.2 mi Calm Calm - N/A Fog Light Freezing Fog
2:55 AM 17.6 °F - 15.8 °F 93% 30.40 in 0.2 mi Calm Calm - N/A Fog Light Freezing Fog
3:15 AM 17.6 °F - 15.8 °F 93% 30.39 in 0.2 mi Calm Calm - N/A Fog Light Freezing Fog
5:55 AM 17.6 °F - 15.8 °F 93% 30.41 in 3.0 mi Calm Calm - N/A   Clear
6:15 AM 15.8 °F - 14.0 °F 93% 30.42 in 2.0 mi Calm Calm - N/A   Clear
6:35 AM 15.8 °F - 14.0 °F 93% 30.42 in 5.0 mi Calm Calm - N/A   Clear
6:55 AM 12.2 °F - 12.2 °F 100% 30.42 in 3.0 mi Calm Calm - N/A   Clear
7:15 AM 14.0 °F - 12.2 °F 93% 30.42 in 3.0 mi Calm Calm - N/A   Clear
7:35 AM 15.8 °F - 14.0 °F 93% 30.43 in 3.0 mi Calm Calm - N/A   Clear
7:55 AM 15.8 °F - 14.0 °F 93% 30.43 in 2.0 mi Calm Calm - N/A   Clear
8:15 AM 17.6 °F - 17.6 °F 100% 30.44 in 2.5 mi Calm Calm - N/A   Clear
8:35 AM - - - N/A% 30.45 in 3.0 mi Calm Calm - N/A   Scattered Clouds
8:55 AM - - - N/A% 30.45 in 5.0 mi Calm Calm - N/A   Haze
9:15 AM 19.4 °F - 19.4 °F 100% 30.46 in 5.0 mi Calm Calm - N/A   Overcast
9:35 AM 21.2 °F - 21.2 °F 100% 30.47 in 5.0 mi Calm Calm - N/A   Overcast
9:55 AM - - - N/A% 30.47 in 5.0 mi Calm Calm - N/A   Haze
10:15 AM 26.6 °F - 26.6 °F 100% 30.47 in 7.0 mi Calm Calm - N/A   Overcast
10:35 AM 26.6 °F - 26.6 °F 100% 30.48 in 7.0 mi Calm Calm - N/A   Overcast
10:55 AM 28.4 °F - 28.4 °F 100% 30.46 in 7.0 mi Calm Calm - N/A   Overcast
11:15 AM 28.4 °F - 28.4 °F 100% 30.45 in 7.0 mi Calm Calm - N/A   Mostly Cloudy
11:35 AM 30.2 °F 26.7 °F 30.2 °F 100% 30.44 in 10.0 mi SW 3.5 mph - N/A   Scattered Clouds
11:55 AM 30.2 °F 26.7 °F 30.2 °F 100% 30.43 in 10.0 mi WSW 3.5 mph - N/A   Clear
12:15 PM 32.0 °F 28.7 °F 30.2 °F 93% 30.42 in 10.0 mi SSW 3.5 mph - N/A   Clear
12:35 PM 33.8 °F - 26.6 °F 75% 30.41 in 10.0 mi Calm Calm - N/A   Clear
12:55 PM 33.8 °F - 23.0 °F 65% 30.40 in 10.0 mi Calm Calm - N/A   Clear
1:15 PM 35.6 °F - 24.8 °F 65% 30.40 in 10.0 mi Calm Calm - N/A   Clear
1:35 PM 33.8 °F 29.6 °F 23.0 °F 65% 30.40 in 10.0 mi ESE 4.6 mph - N/A   Clear
1:55 PM 35.6 °F 32.8 °F 26.6 °F 70% 30.39 in 10.0 mi ESE 3.5 mph - N/A   Clear
2:15 PM 33.8 °F 30.8 °F 26.6 °F 75% 30.39 in 10.0 mi ENE 3.5 mph - N/A   Clear
2:35 PM 33.8 °F - 24.8 °F 70% 30.39 in 10.0 mi Calm Calm - N/A   Clear
2:55 PM 35.6 °F - 24.8 °F 65% 30.39 in 10.0 mi Calm Calm - N/A   Clear
3:15 PM 35.6 °F 32.8 °F 23.0 °F 60% 30.39 in 10.0 mi NNW 3.5 mph - N/A   Clear
3:35 PM 35.6 °F - 23.0 °F 60% 30.40 in 10.0 mi Calm Calm - N/A   Clear
3:55 PM 35.6 °F 32.8 °F 23.0 °F 60% 30.40 in 10.0 mi NW 3.5 mph - N/A   Clear
4:15 PM 35.6 °F - 23.0 °F 60% 30.40 in 10.0 mi Calm Calm - N/A   Clear
4:35 PM 35.6 °F - 24.8 °F 65% 30.39 in 10.0 mi Calm Calm - N/A   Clear
4:55 PM 32.0 °F - 23.0 °F 69% 30.39 in 10.0 mi Calm Calm - N/A   Clear
5:15 PM 30.2 °F 26.7 °F 23.0 °F 75% 30.39 in 10.0 mi SSE 3.5 mph - N/A   Clear
5:35 PM 28.4 °F 23.3 °F 23.0 °F 80% 30.39 in 10.0 mi ESE 4.6 mph - N/A   Clear
5:55 PM 26.6 °F 19.1 °F 21.2 °F 80% 30.37 in 10.0 mi East 6.9 mph - N/A   Clear
6:15 PM 28.4 °F 24.6 °F 21.2 °F 74% 30.38 in 10.0 mi SE 3.5 mph - N/A   Clear
6:35 PM 26.6 °F 21.2 °F 21.2 °F 80% 30.37 in 10.0 mi SSE 4.6 mph - N/A   Clear
6:55 PM 23.0 °F 18.4 °F 19.4 °F 86% 30.38 in 10.0 mi South 3.5 mph - N/A   Clear
7:15 PM 26.6 °F - 21.2 °F 80% 30.39 in 10.0 mi Calm Calm - N/A   Clear
7:35 PM 26.6 °F - 23.0 °F 86% 30.38 in 10.0 mi Calm Calm - N/A   Clear
7:55 PM 26.6 °F - 23.0 °F 86% 30.38 in 10.0 mi Calm Calm - N/A   Clear
8:15 PM 23.0 °F - 21.2 °F 93% 30.38 in 7.0 mi Calm Calm - N/A   Clear
8:35 PM 24.8 °F - 23.0 °F 93% 30.38 in 7.0 mi Calm Calm - N/A   Clear
8:55 PM 23.0 °F - 23.0 °F 100% 30.38 in 7.0 mi Calm Calm - N/A   Clear
9:15 PM 23.0 °F - 23.0 °F 100% 30.38 in 7.0 mi Calm Calm - N/A   Clear
9:35 PM 21.2 °F - 21.2 °F 100% 30.38 in 7.0 mi Calm Calm - N/A   Clear
9:55 PM 21.2 °F - 21.2 °F 100% 30.38 in 7.0 mi Calm Calm - N/A   Clear
10:15 PM 23.0 °F - 21.2 °F 93% 30.38 in 7.0 mi Calm Calm - N/A   Clear
10:35 PM 21.2 °F - 21.2 °F 100% 30.38 in 5.0 mi Calm Calm - N/A   Clear
10:55 PM 23.0 °F - 23.0 °F 100% 30.38 in 4.0 mi Calm Calm - N/A   Clear
11:15 PM 21.2 °F - 21.2 °F 100% 30.37 in 5.0 mi Calm Calm - N/A   Clear
11:35 PM 21.2 °F - 21.2 °F 100% 30.37 in 4.0 mi Calm Calm - N/A   Clear
11:55 PM 21.2 °F - 21.2 °F 100% 30.36 in 4.0 mi Calm Calm - N/A   Clear